Spokane Fairchild, WA
on Tuesday, January 8, 2013

Tuesday
Previous Day Next Day
Daily Summary
 ActualAverage (KGEG)Record (KGEG)
Temperature
Mean Temperature °F 28°F  
Max Temperature 40°F 33°F 50°F (1983)
Min Temperature 32°F 24°F -20°F (1888)
Degree Days
Heating Degree Days 30 37  
Month to date heating degree days 298  
Since 1 July heating degree days 3132  
Cooling Degree Days 0 0  
Month to date cooling degree days 0  
Year to date cooling degree days 0  
Moisture
Dew Point 34°F   
Average Humidity 100    
Maximum Humidity 100    
Minimum Humidity 100    
Precipitation
Precipitation 0.05 in 0.06 in 0.65 in (1953)
Month to date precipitation 0.51  
Year to date precipitation 0.51  
Snow
Snow 0.00 in 0.40 in 5.40 in (2008)
Month to date snowfall 3.7  
Since 1 July snowfall 25.8  
Snow Depth 10.00 in   
Wind
Wind Speed 11 mph   
Max Wind Speed 24 mph   
Max Gust Speed 36 mph   
Visibility 6 miles   
Events Fog , Rain , Snow   

Key: T is trace of precipitation, MM is missing value
Source: NWS Daily Summary
Time(PST)TemperatureDew PointHumidity Pressure Visibility Wind DirectionWind SpeedGust SpeedPrecipitationEvents Conditions
12:58 AM 33.8°F 33.8°F 100% 30.06 in 10.0 miles SW 17.3 mph - 0.00 in   Light Drizzle
1:58 AM 34.2°F 34.2°F 100% 30.08 in 10.0 miles North - - 0.00 in   Light Drizzle
2:40 AM 32.0°F 32.0°F 100% 30.02 in 10.0 miles SW 15.0 mph - N/A   Scattered Clouds
2:58 AM 33.3°F 33.3°F 100% 30.09 in 10.0 miles SW 13.8 mph - 0.00 in   Overcast
3:58 AM 33.3°F 33.3°F 100% 30.10 in 10.0 miles SW 13.8 mph - N/A   Overcast
4:58 AM 33.1°F 33.1°F 100% 30.10 in 10.0 miles SW 13.8 mph - N/A   Overcast
5:58 AM 33.1°F 33.1°F 100% 30.11 in 10.0 miles SW 10.4 mph - N/A   Overcast
6:58 AM 32.9°F 32.9°F 100% 30.13 in 10.0 miles SSW 10.4 mph - N/A   Overcast
7:58 AM 32.0°F 32.0°F 100% 30.15 in 10.0 miles SSW 10.4 mph - N/A   Mostly Cloudy
8:01 AM 32.0°F 32.0°F 100% 30.09 in 10.0 miles SSW 10.4 mph - N/A   Mostly Cloudy
8:12 AM 32.0°F 32.0°F 100% 30.09 in 10.0 miles SSW 10.4 mph - N/A   Mostly Cloudy
8:20 AM 32.0°F 32.0°F 100% 30.09 in 10.0 miles SSW 11.5 mph - N/A   Overcast
8:25 AM 32.0°F 32.0°F 100% 30.08 in 10.0 miles SW 9.2 mph - N/A   Overcast
8:29 AM 32.0°F 32.0°F 100% 30.08 in 10.0 miles SW 9.2 mph - N/A   Overcast
8:58 AM 33.8°F 33.8°F 100% 30.16 in 10.0 miles SW 11.5 mph - 0.00 in   Light Drizzle
9:01 AM 32.0°F 32.0°F 100% 30.09 in 10.0 miles SSW 10.4 mph - N/A   Scattered Clouds
9:12 AM 32.0°F 32.0°F 100% 30.09 in 10.0 miles WSW 9.2 mph - N/A   Light Drizzle
9:27 AM 32.0°F 32.0°F 100% 30.09 in 10.0 miles SW 13.8 mph - N/A Rain Light Rain
9:42 AM 32.0°F 32.0°F 100% 30.09 in 2.5 miles SW 10.4 mph - N/A Snow Light Snow
9:58 AM 32.4°F 32.4°F 100% 30.15 in 2.5 miles SW 6.9 mph - 0.00 in Snow Light Snow
10:03 AM 32.0°F 32.0°F 100% 30.08 in 3.0 miles SW 5.8 mph - N/A Snow Light Snow
10:53 AM 32.0°F 32.0°F 100% 30.07 in 9.0 miles South 3.5 mph - N/A Snow Light Snow
10:58 AM 32.7°F 32.7°F 100% 30.13 in 7.0 miles South 3.5 mph - 0.00 in Snow Light Snow
11:23 AM 32.0°F 32.0°F 100% 30.05 in 3.0 miles Calm Calm - N/A Snow Light Snow
11:28 AM 32.0°F 32.0°F 100% 30.05 in 2.5 miles Calm Calm - N/A Snow Light Snow
11:33 AM 32.0°F 32.0°F 100% 30.04 in 2.5 miles Calm Calm - N/A Snow Light Snow
11:48 AM 32.0°F 32.0°F 100% 30.04 in 2.5 miles SE 2.3 mph - N/A Snow Light Snow
11:58 AM 32.7°F 32.7°F 100% 30.10 in 1.8 miles ESE 3.5 mph - 0.00 in Snow Light Snow
12:03 PM 32.0°F 32.0°F 100% 30.02 in 1.5 miles East 3.5 mph - N/A Snow Light Snow
12:08 PM 32.0°F 32.0°F 100% 30.02 in 1.2 miles ESE 3.5 mph - N/A Snow Light Snow
12:28 PM 32.0°F 32.0°F 100% 30.01 in 1.8 miles ESE 5.8 mph - N/A Snow Light Snow
12:33 PM 32.0°F 32.0°F 100% 30.01 in 3.0 miles ESE 5.8 mph - N/A Snow Light Snow
12:58 PM 32.5°F 32.5°F 100% 30.06 in 3.0 miles East 4.6 mph - 0.01 in Snow Light Snow
1:03 PM 32.0°F 32.0°F 100% 29.99 in 2.5 miles ESE 5.8 mph - N/A Snow Light Snow
1:38 PM 32.0°F 32.0°F 100% 29.99 in 1.8 miles SE 4.6 mph - N/A Snow Light Snow
1:43 PM 32.0°F 32.0°F 100% 29.99 in 1.5 miles SE 4.6 mph - N/A Snow Light Snow
1:53 PM 32.0°F 32.0°F 100% 29.98 in 1.5 miles SE 5.8 mph - N/A Snow Light Snow
1:58 PM 32.4°F 32.4°F 100% 30.05 in 1.8 miles SE 5.8 mph - 0.01 in Snow Light Snow
2:08 PM 32.0°F 32.0°F 100% 29.97 in 1.5 miles ESE 5.8 mph - N/A Snow Light Snow
2:23 PM 32.0°F 32.0°F 100% 29.97 in 1.8 miles SE 5.8 mph - N/A Snow Light Snow
2:27 PM 32.0°F 32.0°F 100% 29.97 in 1.8 miles SE 6.9 mph - N/A Snow Light Snow
2:52 PM 32.0°F 32.0°F 100% 29.96 in 2.0 miles SE 6.9 mph - N/A Snow Light Snow
2:58 PM 32.4°F 32.4°F 100% 30.04 in 2.0 miles SE 6.9 mph - 0.01 in Snow Light Snow
3:08 PM 32.0°F 32.0°F 100% 29.96 in 2.5 miles SE 5.8 mph - N/A Snow Light Snow
3:18 PM 32.0°F 32.0°F 100% 29.95 in 3.0 miles SE 4.6 mph - N/A Rain Light Rain
3:58 PM 32.9°F 32.9°F 100% 30.00 in 7.0 miles SE 9.2 mph - 0.01 in Rain Light Rain
4:03 PM 32.0°F 32.0°F 100% 29.93 in 7.0 miles SSE 5.8 mph - N/A   Overcast
4:43 PM 32.0°F 32.0°F 100% 29.91 in 1.5 miles SSE 6.9 mph - N/A   Overcast
4:48 PM 33.8°F 33.8°F 100% 29.91 in 1.0 miles South 5.8 mph - N/A   Mist
4:53 PM 33.8°F 33.8°F 100% 29.91 in 0.5 miles SSE 5.8 mph - N/A Fog Fog
4:58 PM 33.8°F 33.8°F 100% 29.98 in 1.0 miles SE 8.1 mph - 0.00 in   Mist
5:03 PM 33.8°F 33.8°F 100% 29.90 in 1.0 miles SSE 5.8 mph - N/A   Mist
5:08 PM 33.8°F 33.8°F 100% 29.90 in 0.8 miles SSE 6.9 mph - N/A   Mist
5:13 PM 33.8°F 33.8°F 100% 29.89 in 0.2 miles South 8.1 mph - N/A Fog Fog
5:38 PM 35.6°F 35.6°F 100% 29.88 in 0.5 miles South 9.2 mph - N/A Fog Fog
5:43 PM 35.6°F 35.6°F 100% 29.87 in 0.5 miles South 10.4 mph - N/A Fog Fog
5:48 PM 35.6°F 35.6°F 100% 29.87 in 0.5 miles South 11.5 mph - N/A Fog Fog
5:53 PM 35.6°F 35.6°F 100% 29.86 in 0.8 miles South 11.5 mph - N/A   Mist
5:58 PM 36.0°F 36.0°F 100% 29.93 in 0.8 miles South 12.7 mph - 0.00 in   Mist
6:03 PM 35.6°F 35.6°F 100% 29.86 in 0.8 miles South 15.0 mph - N/A   Mist
6:08 PM 35.6°F 35.6°F 100% 29.85 in 1.0 miles South 11.5 mph - N/A   Mist
6:13 PM 35.6°F 35.6°F 100% 29.85 in 1.0 miles South 12.7 mph - N/A   Mist
6:18 PM 35.6°F 35.6°F 100% 29.85 in 1.5 miles South 11.5 mph - N/A   Overcast
6:23 PM 37.4°F 37.4°F 100% 29.85 in 3.0 miles South 12.7 mph - N/A   Overcast
6:28 PM 37.4°F 37.4°F 100% 29.84 in 8.0 miles South 13.8 mph - N/A   Overcast
6:31 PM 37.4°F 37.4°F 100% 29.84 in 10.0 miles South 15.0 mph - N/A   Overcast
6:50 PM 37.4°F 37.4°F 100% 29.84 in 10.0 miles South 13.8 mph - N/A   Overcast
6:58 PM 36.7°F 36.7°F 100% 29.90 in 10.0 miles South 12.7 mph - 0.00 in   Overcast
7:08 PM 37.4°F 37.4°F 100% 29.83 in 10.0 miles South 13.8 mph - N/A   Overcast
7:20 PM 37.4°F 37.4°F 100% 29.83 in 10.0 miles South 15.0 mph - N/A   Overcast
7:25 PM 37.4°F 37.4°F 100% 29.83 in 10.0 miles South 12.7 mph - N/A   Overcast
7:35 PM 37.4°F 37.4°F 100% 29.82 in 10.0 miles South 17.3 mph - N/A Snow Light Snow
7:45 PM 37.4°F 37.4°F 100% 29.82 in 10.0 miles South 17.3 mph - N/A Snow Light Snow
7:55 PM 37.4°F 37.4°F 100% 29.82 in 10.0 miles South 17.3 mph - N/A Snow Light Snow
7:58 PM 37.6°F 37.6°F 100% 29.88 in 10.0 miles South 18.4 mph - 0.00 in Snow Light Snow
8:16 PM 39.2°F 39.2°F 100% 29.82 in 10.0 miles South 18.4 mph 25.3 mph N/A   Scattered Clouds
8:58 PM 38.3°F 38.3°F 100% 29.88 in 10.0 miles South 16.1 mph - 0.00 in   Clear
9:18 PM 39.2°F 39.2°F 100% 29.82 in 10.0 miles South 19.6 mph - N/A   Clear
9:30 PM 39.2°F 39.2°F 100% 29.81 in 10.0 miles SSW 20.7 mph 27.6 mph N/A   Clear
9:58 PM 39.4°F 39.4°F 100% 29.86 in 10.0 miles South 18.4 mph - 0.00 in   Partly Cloudy
10:58 PM 39.9°F 39.9°F 100% 29.87 in 10.0 miles South 19.6 mph 32.2 mph N/A   Partly Cloudy
11:58 PM 40.1°F 40.1°F 100% 29.86 in 10.0 miles SSW 24.2 mph 35.7 mph 0.01 in   Mostly Cloudy
Moon Phase
Jan. 08 Jan. 11 Jan. 18 Jan. 26 Feb. 03
Sunrise:07:37 AM (PST) Moon Rise:04:14 AM (PST)1/8
Sunset:04:17 PM (PST) Moon Set:01:24 PM (PST)1/8

Copyright © 2014 The Weather Underground, Inc.